{"data":{"norad_id":63875,"epoch":"2026-05-25T02:52:51.981312Z","epoch_age_seconds":61918,"freshness":"FRESH","line1":"1 63875U 25094M   26145.12004608  .00003484  00000+0  29955-3 0  9999","line2":"2 63875  70.0017  41.6744 0002523 268.6787  91.4083 14.98337355 58655","mean_motion":14.98337355,"eccentricity":0.0002523,"inclination_deg":70.0017,"raan_deg":41.6744,"arg_perigee_deg":268.6787,"mean_anomaly_deg":91.4083,"bstar":0.00029955,"rev_number":5865,"period_min":96.10652735812,"perigee_km":570.27961837876,"apogee_km":573.78667423459,"semimajor_km":6950.1701463067,"source":"CELESTRAK","updated_at":"2026-05-25T13:38:20.171452Z"}}